Starlink 11609

operational
NORAD ID: 63132 Int'l Des: 2025-043 Owner: SPXS Country: US Constellation: starlink
LEOCIRCULAR

Über Starlink 11609

Beschreibung wird geladen...

Live-Position

3D-Globus wird geladen...

Nächste Überflüge

Höhenverlauf

Altitude vs Time

uPlot chart will show altitude changes over time

Zweizeiliger Elementsatz

1 63132U 25043A 25258.28110410 .00424751 00000-0 31163-2 0 9997
2 63132 42.9993 228.1368 0004193 273.0295 87.0093 15.71075541 31870
Epoch: 15. Sept. 2025 • Age: 19 hours

Aktueller Status

Höhe 356.0 km
Geschwindigkeit 7.70 km/s
Subsatellitenpunkt -13.86°S, 34.79°E
Startdatum 3. März 2025
Alter 0.5 years
Typ internet

Technische Details

Klassifizierung Payload
Masse 960.00 kg
Trockenmasse 910.00 kg
Gesamtmasse 960.00 kg
Länge 0.30 m
Durchmesser 4.10 m
Spannweite 29.00 m
Form Box + pan
Hersteller SPXS
Bus-Typ Starlink V2MD
Phasenstatus In Orbit
Besitzer/Staat SPXS/US

Große Konstellationen

Loading constellations...